Change the Weather History Date:

Wednesday, February 20, 2013

  Actual Average Record
Temperature  
Mean Temperature 42 °F 41 °F  
Max Temperature 48 °F 49 °F 61 °F (1995)
Min Temperature 35 °F 33 °F 15 °F (1986)
Degree Days  
Heating Degree Days 24 24  
Month to date heating degree days 491  
Cooling Degree Days 0 0  
Month to date cooling degree days 0  
Year to date cooling degree days 0  
Moisture  
Dew Point 35 °F    
Average Humidity 80    
Maximum Humidity 87    
Minimum Humidity 62    
Precipitation  
Precipitation 0.05 in 0.11 in 1.31 in (1984)
Month to date precipitation 2.20  
Year to date precipitation 6.87  
Sea Level Pressure  
Sea Level Pressure 30.02 in    
Wind  
Wind Speed 1 mph (East)    
Max Wind Speed 8 mph    
Max Gust Speed -    
Visibility 8 miles    
Events Fog , Rain    
T = Trace of Precipitation, MM = Missing Value Source: NWS Daily Summary

Daily Weather History Graph

Daily Weather History Graph

Search for Another Location

Airport or City:

Trip Planner

Search our weather history database for the weather conditions in past years. The results will help you decide how hot, cold, wet, or windy it might be!

Date:

Astronomy

Feb. 20, 2013 Rise Set
Actual Time 7:08 AM PST 5:39 PM PST
Civil Twilight 6:36 AM PST 6:12 PM PST
Nautical Twilight 5:59 AM PST 6:48 PM PST
Astronomical Twilight 5:23 AM PST 7:25 PM PST
Moon 12:50 PM PST (2/20) 3:48 AM PST (2/20)
Length of Visible Light 11h 35m
Length of Day
10h 31m
Waxing Gibbous, 77% of the Moon is Illuminated
Feb 20
Waxing Gibbous
Feb 25
Full
Mar 4
Last Quarter
Mar 11
New
Mar 19
First Quarter

Hourly Weather History & Observations

Time (PST) Temp. Windchill Dew Point Humidity Pressure Visibility Wind Dir Wind Speed Gust Speed Precip Events Conditions
12:07 AM 35.6 °F - 30.2 °F 81% 29.99 in 3.0 mi Calm Calm - N/A   Haze
12:53 AM 37.9 °F 35.5 °F 33.1 °F 83% 30.02 in 10.0 mi SE 3.5 mph - N/A   Partly Cloudy
1:08 AM 37.4 °F - 33.8 °F 87% 29.99 in 10.0 mi Calm Calm - N/A   Mostly Cloudy
1:53 AM 39.0 °F - 34.0 °F 82% 30.03 in 10.0 mi Calm Calm - N/A   Overcast
2:11 AM 37.4 °F - 33.8 °F 87% 30.00 in 10.0 mi Calm Calm - N/A   Overcast
2:53 AM 37.9 °F - 33.1 °F 83% 30.04 in 10.0 mi Calm Calm - N/A   Overcast
3:53 AM 39.0 °F - 34.0 °F 82% 30.04 in 10.0 mi Calm Calm - N/A   Overcast
4:53 AM 39.2 °F - 35.6 °F 87% 30.02 in 10.0 mi Calm Calm - N/A   Overcast
5:08 AM 39.2 °F - 35.6 °F 87% 30.02 in 10.0 mi Calm Calm - N/A   Overcast
5:53 AM 39.9 °F - 35.1 °F 83% 30.04 in 10.0 mi Calm Calm - N/A   Overcast
6:46 AM 39.2 °F 37.0 °F 33.8 °F 81% 30.01 in 10.0 mi North 3.5 mph - N/A   Overcast
6:53 AM 39.0 °F - 34.0 °F 82% 30.04 in 10.0 mi Calm Calm - N/A   Overcast
7:53 AM 39.9 °F - 35.1 °F 83% 30.04 in 6.0 mi Calm Calm - 0.00 in Rain Light Rain
8:48 AM 42.8 °F 41.1 °F 37.4 °F 81% 30.01 in 7.0 mi SE 3.5 mph - 0.03 in Rain Light Rain
8:53 AM 44.1 °F 42.5 °F 37.0 °F 76% 30.04 in 7.0 mi SE 3.5 mph - 0.03 in Rain Light Rain
9:13 AM 44.6 °F 43.1 °F 37.4 °F 76% 30.01 in 10.0 mi SE 3.5 mph - 0.00 in   Overcast
9:53 AM 44.1 °F - 37.0 °F 76% 30.04 in 10.0 mi Calm Calm - 0.00 in   Overcast
10:53 AM 43.0 °F - 37.9 °F 82% 30.04 in 7.0 mi Calm Calm - N/A   Overcast
11:53 AM 43.0 °F - 37.0 °F 80% 30.04 in 9.0 mi Calm Calm - 0.00 in Rain Light Rain
12:53 PM 48.9 °F - 37.0 °F 64% 30.01 in 10.0 mi SE 8.1 mph - 0.00 in   Overcast
1:00 PM 48.2 °F - 35.6 °F 62% 29.99 in 10.0 mi SE 6.9 mph - N/A   Partly Cloudy
1:29 PM 48.2 °F - 35.6 °F 62% 29.99 in 10.0 mi Variable 4.6 mph - N/A   Mostly Cloudy
1:53 PM 48.0 °F - 36.0 °F 63% 30.01 in 10.0 mi Variable 4.6 mph - 0.00 in Rain Light Rain
2:03 PM 48.2 °F - 35.6 °F 62% 29.99 in 10.0 mi SSE 5.8 mph - 0.00 in Rain Light Rain
2:53 PM 45.0 °F 43.5 °F 37.9 °F 76% 30.02 in 10.0 mi NE 3.5 mph - 0.01 in Rain Light Rain
3:53 PM 44.1 °F 41.5 °F 37.9 °F 79% 30.02 in 7.0 mi NNE 4.6 mph - 0.01 in Rain Light Rain
4:24 PM 44.6 °F 42.2 °F 39.2 °F 81% 29.99 in 8.0 mi NE 4.6 mph - 0.00 in   Overcast
4:53 PM 46.0 °F - 37.9 °F 73% 30.02 in 10.0 mi Calm Calm - 0.00 in   Overcast
5:53 PM 43.0 °F 41.3 °F 37.9 °F 82% 30.03 in 10.0 mi NNE 3.5 mph - N/A   Mostly Cloudy
6:53 PM 39.9 °F - 35.1 °F 83% 30.03 in 10.0 mi Calm Calm - N/A   Mostly Cloudy
7:53 PM 39.2 °F - 33.8 °F 81% 30.01 in 10.0 mi Calm Calm - N/A   Mostly Cloudy
8:53 PM 39.0 °F - 34.0 °F 82% 30.05 in 10.0 mi Calm Calm - N/A   Overcast
9:10 PM 39.2 °F - 33.8 °F 81% 30.02 in 6.0 mi Calm Calm - N/A   Haze
9:53 PM 39.0 °F - 34.0 °F 82% 30.05 in 10.0 mi Calm Calm - N/A   Mostly Cloudy
10:05 PM 37.4 °F - 33.8 °F 87% 30.02 in 1.5 mi Calm Calm - N/A   Haze
10:17 PM 37.4 °F - 33.8 °F 87% 30.02 in 10.0 mi Calm Calm - N/A   Partly Cloudy
10:53 PM 36.0 °F - 32.0 °F 86% 30.04 in 10.0 mi Calm Calm - N/A   Mostly Cloudy
10:58 PM 35.6 °F - 32.0 °F 87% 30.01 in 0.8 mi Calm Calm - N/A   Mostly Cloudy
11:16 PM 37.4 °F - 33.8 °F 87% 29.99 in 2.0 mi Calm Calm - N/A   Mostly Cloudy
11:27 PM 37.4 °F - 33.8 °F 87% 30.00 in 4.0 mi Calm Calm - N/A   Scattered Clouds
11:40 PM 35.6 °F - 32.0 °F 87% 29.99 in 2.0 mi Calm Calm - N/A   Partly Cloudy
11:44 PM 35.6 °F - 30.2 °F 81% 29.99 in 0.8 mi Calm Calm - N/A   Haze
11:49 PM 35.6 °F - 30.2 °F 81% 30.00 in 0.5 mi Calm Calm - N/A Fog Fog
11:53 PM 36.0 °F - 30.9 °F 82% 30.03 in 0.8 mi Calm Calm - N/A   Haze